This is the latest recevied weather packets stored in our database for station/object AB4KN. If no packets are shown the sender has not sent any weather packets the latest 10 day(s).
| Time | Temp. | Humidity | Pressure | Rain* | Wind** | Luminosity | Snow |
|---|---|---|---|---|---|---|---|
| 1778144438 | 19.44° C | 89% | 1014.5 hPa | 7.11 mm | - | 0 W/m² | - |
| 1778144135 | 19.44° C | 89% | 1014.2 hPa | 6.1 mm | - | 0 W/m² | - |
| 1778143832 | 19.44° C | 89% | 1015.9 hPa | 1.78 mm | - | 0 W/m² | - |
| 1778143528 | 19.44° C | 89% | 1016.1 hPa | 4.83 mm | - | 0 W/m² | - |
| 1778143226 | 19.44° C | 89% | 1016.1 hPa | 4.83 mm | - | 0 W/m² | - |
| 1778142922 | 19.44° C | 89% | 1016 hPa | 0 mm | - | 0 W/m² | - |
| 1778142619 | 19.44° C | 89% | 1016.3 hPa | 0 mm | - | 0 W/m² | - |
| 1778142315 | 19.44° C | 89% | 1016.2 hPa | 0 mm | - | 0 W/m² | - |
| 1778142011 | 19.44° C | 89% | 1016.2 hPa | 0 mm | - | 0 W/m² | - |
| 1778141708 | 19.44° C | 89% | 1016.1 hPa | 0 mm | - | 0 W/m² | - |
| 1778141405 | 19.44° C | 89% | 1015.8 hPa | 0 mm | - | 0 W/m² | - |
| 1778141100 | 19.44° C | 89% | 1015.9 hPa | 0 mm | - | 0 W/m² | - |
| 1778140796 | 19.44° C | 89% | 1015.8 hPa | 1.27 mm | - | 0 W/m² | - |
| 1778140493 | 19.44° C | 89% | 1016.1 hPa | 1.27 mm | - | 0 W/m² | - |
| 1778140189 | 19.44° C | 89% | 1016.2 hPa | 0 mm | - | 0 W/m² | - |
| 1778139886 | 19.44° C | 89% | 1016.2 hPa | 3.05 mm | - | 0 W/m² | - |
| 1778139584 | 19.44° C | 89% | 1016.3 hPa | 7.87 mm | - | 0 W/m² | - |
| 1778139280 | 19.44° C | 89% | 1016.3 hPa | 6.1 mm | - | 0 W/m² | - |
| 1778138977 | 19.44° C | 89% | 1016.4 hPa | 4.83 mm | - | 0 W/m² | - |
| 1778138674 | 19.44° C | 89% | 1016.4 hPa | 1.78 mm | - | 0 W/m² | - |
| 1778138372 | 19.44° C | 89% | 1016.6 hPa | 0 mm | - | 0 W/m² | - |
| 1778138069 | 19.44° C | 89% | 1016.4 hPa | 0 mm | - | 0 W/m² | - |
| 1778137765 | 19.44° C | 89% | 1016.1 hPa | 0 mm | - | 0 W/m² | - |
| 1778137463 | 19.44° C | 89% | 1016.2 hPa | 0 mm | - | 0 W/m² | - |
| 1778137159 | 19.44° C | 89% | 1016.2 hPa | 0 mm | - | 0 W/m² | - |
* Rain latest hour (hover to see other rain measurements)
** Current wind speed in m/s (hover to see current wind gust speed)